Regional Weather Roundup
Issued by NWS Goodland, KS

Home | Current Version | Previous Version | Text Only | Print | Product List | Glossary Off
Versions: 1 2 3 4 5 6 7 8 9 10 11 12 13 14 15 16 17 18 19 20 21 22 23 24 25 26 27 28 29 30 31 32 33 34 35 36 37 38 39 40 41 42 43 44 45 46 47 48 49 50

000
ASUS43 KGLD 230108
RWRGLD

GOODLAND FORECAST AREA HOURLY WEATHER ROUNDUP
NATIONAL WEATHER SERVICE GOODLAND KS
600 PM MST SUN JAN 22 2017

...OFFICIAL OBSERVATIONS...

CITY           SKY/WX    TMP DP  RH WIND       PRES   REMARKS
GOODLAND KS    CLEAR     32  25  75 W6        29.90F
HILL CITY KS   CLEAR     34  27  75 W5        29.91R
IMPERIAL NEB   CLEAR     36  24  62 NW5       29.90R
MCCOOK NEB     CLEAR     36  27  69 W8        29.89S
AKRON CO       CLEAR     33  15  47 CALM      29.90S
BURLINGTON CO  CLEAR     33  26  75 SW6       29.92F
LIMON CO       CLEAR     23  18  81 CALM      29.92R
$$

...UNOFFICIAL OBSERVATIONS...

CITY           SKY/WX    TMP DP  RH WIND       PRES   REMARKS
LENORA KS        N/A     41  32  70 W6          N/A
NORTON KS      CLEAR     36  25  64 W10       29.89S
SHARON SPRINGS   N/A     34  26  72 W6          N/A
TRENTON NEB      N/A     37  32  82 NW5         N/A
KIT CARSON CO    N/A     31  22  68 CALM        N/A
YUMA CO        FAIR      30  23  74 W5        29.91R
$$




USA.gov is the U.S. government's official web portal to all federal, state and local government web resources and services.